Regional Weather Roundup
Issued by NWS

Home | Current Version | Previous Version | Graphics & Text | Print | Product List | Glossary On
Versions: 1 2 3 4 5 6 7 8 9 10 11 12 13 14 15 16 17 18 19 20 21 22 23 24 25 26 27 28 29 30 31 32 33 34 35 36 37 38 39 40 41 42 43 44 45 46 47 48 49 50
563
ASUS45 KCYS 221610
RWRWY

WYOMING REGIONAL WEATHER ROUNDUP
NATIONAL WEATHER SERVICE CHEYENNE WY
900 AM MST MON JAN 22 2018

NOTE:  "FAIR" INDICATES FEW OR NO CLOUDS BELOW 12,000 FEET
WITH NO SIGNIFICANT WEATHER AND/OR OBSTRUCTIONS TO VISIBILITY.

WYZ001-221700-
YELLOWSTONE NATIONAL PARK

CITY           SKY/WX    TMP DP  RH WIND       PRES   REMARKS
LK YELLOWSTONE   N/A      7   4  87 CALM      30.13R
W YELLOWSTONE  NOT AVBL

$$
WYZ002>013-054>058-071-098>099-221700-
NORTHERN WYOMING

CITY           SKY/WX    TMP DP  RH WIND       PRES   REMARKS
JACKSON        LGT SNOW   1  -2  85 N3        30.22R FOG
CODY           FAIR      28  10  46 SW6       30.07R WCI  22
GREYBULL       FAIR       6   3  87 E3        30.14R
WORLAND        FAIR       2   1  96 S6        30.11R WCI  -9
SHERIDAN       FAIR      12   6  77 CALM      30.03R
BUFFALO        FAIR      28   7  41 W7        30.01R WCI  21
GILLETTE       FAIR      23  12  62 W14       30.00R WCI  11
HULETT         FAIR      19  12  73 CALM      30.00F
NEWCASTLE      FAIR      19  10  68 NW7       30.01S WCI  10

$$
WYZ014>020-022>026-101>103-221700-
CENTRAL WYOMING

CITY           SKY/WX    TMP DP  RH WIND       PRES   REMARKS
BIG PINEY      CLOUDY     4  -1  80 CALM      30.16R
PINEDALE       PTSUNNY    7   0  72 CALM      30.15R
DUBOIS         FAIR      14   5  67 N12       30.06S WCI   0
LANDER         FAIR       7  -1  70 CALM      30.06R
RIVERTON       FAIR       4  -1  80 NE5       30.08R WCI  -5
CASPER         FAIR      16   9  74 SW29      30.06S WCI  -4
DOUGLAS        FAIR      12   5  73 NW5       30.04R WCI   4

$$
WYZ021-027>030-104>119-221700-
SOUTHERN WYOMING

CITY           SKY/WX    TMP DP  RH WIND       PRES   REMARKS
EVANSTON       PTSUNNY    9   7  92 SW9       30.19R WCI  -4
FORT BRIDGER   FAIR      13   5  68 W10       30.21R WCI   0
ROCK SPRINGS   FAIR      11   6  81 SW12      30.18R WCI  -3
DIXON            N/A      3  -1  83 SE3       30.27R
RAWLINS        FAIR      15   7  70 SW8       30.13R WCI   4
SARATOGA       FAIR       7   1  78 S9        30.16R WCI  -7
LARAMIE        FAIR       3  -1  83 NE7       30.03R WCI  -9
CHEYENNE       FAIR      21   8  57 W20       29.97R WCI   6
TORRINGTON     FAIR      15   7  70 NW13      30.02R WCI   1

$$




USA.gov is the U.S. government's official web portal to all federal, state and local government web resources and services.